Englewood, Florida, United States (34223)
Lat: 26.96N, Lon: 82.35W
Wx Zone: FLZ060
Local Info
Past Weather Observations for Thursday, April 17, 2014

NOTE: This archive is for the closest National Weather Service station to Englewood. Information may differ from the station used for current weather conditions.

Time Weather Temperature Dewpoint Humidity Pressure Winds Precip Visibility
23:53
Partly Cloudy
72°F / 22°C 70°F / 21°C 94% 30.09 in
(1019 mb)
E 11.5 mph
(E 19 kph)
- 10SM
22:53
Partly Cloudy
72°F / 22°C 70°F / 21°C 94% 30.12 in
(1020 mb)
E 12.7 mph
(E 20 kph)
- 10SM
21:53
Mostly Cloudy
72°F / 22°C 70°F / 21°C 94% 30.12 in
(1020 mb)
ENE 11.5 mph
(ENE 19 kph)
- 10SM
21:32
Mostly Cloudy
72°F / 22°C 70°F / 21°C 94% 30.12 in
(1020 mb)
ENE 11.5 mph
(ENE 19 kph)
- 10SM
21:05
Mostly Cloudy
72°F / 22°C 70°F / 21°C 94% 30.15 in
(1021 mb)
ENE 10.4 mph
(ENE 17 kph)
- 10SM
20:53
Mostly Cloudy
72°F / 22°C 70°F / 21°C 94% 30.15 in
(1021 mb)
ENE 10.4 mph
(ENE 17 kph)
- 10SM
19:53
Partly Cloudy
72°F / 22°C 70°F / 21°C 94% 30.12 in
(1020 mb)
ENE 12.7 mph
(ENE 20 kph)
- 10SM
18:53
Mostly Cloudy
72°F / 22°C 68°F / 20°C 88% 30.09 in
(1019 mb)
ENE 11.5 mph
(ENE 19 kph)
0.02 in
(0.51 mm)
10SM
17:53
Mostly Cloudy
Light Rain
72°F / 22°C 66°F / 19°C 83% 30.12 in
(1020 mb)
ENE 10.4 mph
(ENE 17 kph)
0.04 in
(1.02 mm)
10SM
17:51
Mostly Cloudy
Light Rain
72°F / 22°C 66°F / 19°C 83% 30.12 in
(1020 mb)
ENE 11.5 mph
(ENE 19 kph)
0.04 in
(1.02 mm)
10SM
17:36
Mostly Cloudy
Thunder Storms
72°F / 22°C 68°F / 20°C 88% 30.12 in
(1020 mb)
ENE 12.7 mph
(ENE 20 kph)
0.04 in
(1.02 mm)
10SM
17:08
Overcast
Thunder Storms
72°F / 22°C 66°F / 19°C 83% 30.12 in
(1020 mb)
SE 4.6 mph
(SE 7 kph)
0.03 in
(0.76 mm)
9SM
17:00
Overcast
Thunder Storms
72°F / 22°C 66°F / 19°C 83% 30.12 in
(1020 mb)
SE 9.2 mph
(SE 15 kph)
0.03 in
(0.76 mm)
2SM
16:56
Overcast
Thunder Storms
70°F / 21°C 66°F / 19°C 88% 30.12 in
(1020 mb)
SE 8.1 mph
(SE 13 kph)
0.02 in
(0.51 mm)
1 1/4SM
16:53
Overcast
Heavy Rain
70°F / 21°C 66°F / 19°C 88% 30.12 in
(1020 mb)
SE 9.2 mph
(SE 15 kph)
0.66 in
(16.76 mm)
3/4SM
16:50
Overcast
Heavy Rain
72°F / 22°C 66°F / 19°C 83% 30.09 in
(1019 mb)
SE 11.5 mph
(SE 19 kph)
0.62 in
(15.75 mm)
3/4SM
16:38
Overcast
Heavy Rain
73°F / 23°C 70°F / 21°C 89% 30.09 in
(1019 mb)
SE 15 mph
(SE 24 kph)
0.21 in
(5.33 mm)
1 1/2SM
16:35
Overcast
Thunder Storms
75°F / 24°C 72°F / 22°C 89% 30.09 in
(1019 mb)
SE 19.6 mph
(SE 32 kph)
0.16 in
(4.06 mm)
2 1/2SM
16:26
Overcast
Thunder Storms
75°F / 24°C 72°F / 22°C 89% 30.09 in
(1019 mb)
ESE 11.5 mph
(ESE 19 kph)
0.07 in
(1.78 mm)
10SM
16:12
Overcast
Thunder Storms
75°F / 24°C 72°F / 22°C 89% 30.09 in
(1019 mb)
ENE 16.1 mph
(ENE 26 kph)
0.07 in
(1.78 mm)
9SM
16:02
Overcast
Thunder Storms
75°F / 24°C 72°F / 22°C 89% 30.09 in
(1019 mb)
ENE 15 mph
(ENE 24 kph)
0.07 in
(1.78 mm)
2SM
15:53
Overcast
Thunder Storms
75°F / 24°C 72°F / 22°C 89% 30.09 in
(1019 mb)
ENE 19.6 mph
(ENE 32 kph)
0.36 in
(9.14 mm)
1SM
15:49
Overcast
Thunder Storms
75°F / 24°C 72°F / 22°C 89% 30.09 in
(1019 mb)
ENE 21.9 mph
(ENE 35 kph)
0.30 in
(7.62 mm)
1SM
15:42
Overcast
Thunder Storms
75°F / 24°C 72°F / 22°C 89% 30.09 in
(1019 mb)
E 17.3 mph
(E 28 kph)
0.17 in
(4.32 mm)
2SM
15:31
Overcast
81°F / 27°C 70°F / 21°C 70% 30.06 in
(1018 mb)
ENE 20.7 mph
(ENE 33 kph)
0.00 in
(0.00 mm)
10SM
14:53
Overcast
Light Rain
81°F / 27°C 70°F / 21°C 70% 30.06 in
(1018 mb)
ENE 21.9 mph
(ENE 35 kph)
0.00 in
(0.00 mm)
10SM
13:53
Overcast
82°F / 28°C 70°F / 21°C 66% 30.09 in
(1019 mb)
ENE 13.8 mph
(ENE 22 kph)
- 10SM
12:53
Mostly Cloudy
84°F / 29°C 68°F / 20°C 58% 30.12 in
(1020 mb)
E 9.2 mph
(E 15 kph)
- 10SM
11:53
Mostly Cloudy
88°F / 31°C 70°F / 21°C 55% 30.15 in
(1021 mb)
E 12.7 mph
(E 20 kph)
- 10SM
10:53
Overcast
82°F / 28°C 70°F / 21°C 66% 30.15 in
(1021 mb)
ENE 10.4 mph
(ENE 17 kph)
- 10SM
10:43
Overcast
82°F / 28°C 70°F / 21°C 66% 30.15 in
(1021 mb)
E 12.7 mph
(E 20 kph)
- 10SM
10:18
Mostly Cloudy
82°F / 28°C 70°F / 21°C 66% 30.15 in
(1021 mb)
ENE 12.7 mph
(ENE 20 kph)
- 10SM
09:53
Partly Cloudy
81°F / 27°C 70°F / 21°C 70% 30.15 in
(1021 mb)
E 12.7 mph
(E 20 kph)
- 10SM
08:53
Partly Cloudy
77°F / 25°C 66°F / 19°C 69% 30.15 in
(1021 mb)
ENE 12.7 mph
(ENE 20 kph)
- 10SM
08:38
Mostly Cloudy
75°F / 24°C 66°F / 19°C 74% 30.15 in
(1021 mb)
ENE 10.4 mph
(ENE 17 kph)
- 10SM
07:53
Clear
72°F / 22°C 64°F / 18°C 78% 30.15 in
(1021 mb)
ENE 10.4 mph
(ENE 17 kph)
- 10SM
07:39
Partly Cloudy
72°F / 22°C 64°F / 18°C 78% 30.15 in
(1021 mb)
NE 9.2 mph
(NE 15 kph)
- 10SM
07:07
Mostly Cloudy
68°F / 20°C 63°F / 17°C 83% 30.15 in
(1021 mb)
NE 6.9 mph
(NE 11 kph)
- 10SM
06:53
Partly Cloudy
66°F / 19°C 63°F / 17°C 88% 30.15 in
(1021 mb)
NE 6.9 mph
(NE 11 kph)
- 10SM
05:53
Mostly Cloudy
66°F / 19°C 63°F / 17°C 88% 30.12 in
(1020 mb)
NE 5.8 mph
(NE 9 kph)
- 10SM
04:53
Clear
66°F / 19°C 63°F / 17°C 88% 30.09 in
(1019 mb)
NE 5.8 mph
(NE 9 kph)
- 10SM
03:53
Clear
66°F / 19°C 63°F / 17°C 88% 30.09 in
(1019 mb)
ENE 8.1 mph
(ENE 13 kph)
- 10SM
02:53
Partly Cloudy
68°F / 20°C 63°F / 17°C 83% 30.09 in
(1019 mb)
ENE 11.5 mph
(ENE 19 kph)
- 10SM
01:53
Overcast
68°F / 20°C 63°F / 17°C 83% 30.09 in
(1019 mb)
ENE 11.5 mph
(ENE 19 kph)
- 10SM
00:53
Overcast
68°F / 20°C 63°F / 17°C 83% 30.12 in
(1020 mb)
NE 9.2 mph
(NE 15 kph)
- 10SM
Time Weather Temperature Dewpoint Humidity Pressure Winds Precip Visibility


Weather for websites

WeatherForYou.com, LLC is not responsible for any damages or problems caused by this service. Current weather conditions are obtained from the closest station including government and personal stations which may have varying degrees of accuracy. Weather forecasts are derived from the NOAA NDFD. Like all things, this site belongs to Jesus Christ... He just trusts me to maintain it. If you have any questions or comments email webmaster@weatherforyou.com

Copyright © 2014, WeatherForYou.com LLC. All rights reserved.